[[{"header":{"parameterUnit":"m.s-1","parameterCategory":1,"la1":30.2992,"la2":30.254,"lo1":-89.0895,"lo2":-89.0443,"dy":0.0025,"dx":0.0025,"nx":19,"ny":19,"refTime":"2026-04-28T09:00:00:Z","depth":0,"parameterNumber":2,"parameterNumberName":"U-component_of_WINDS"},"data":[0,0,0,-2.7277,-2.728,-2.7396,-2.7397,-2.7544,-2.7545,0,0,0,0,0,0,0,0,0,0,0,-2.7241,-2.7242,-2.7277,-2.728,-2.7396,-2.7397,-2.7543,-2.7545,0,0,0,0,0,0,0,0,0,0,0,-2.724,-2.7241,-2.7242,-2.728,-2.7396,-2.7397,-2.7543,-2.7456,0,0,0,0,0,0,0,0,0,0,-2.7343,-2.7307,-2.7241,-2.7242,-2.7281,-2.7396,-2.7397,-2.7452,-2.7462,-2.749,0,-2.7514,0,-2.7532,-2.7555,-2.7555,0,0,0,-2.7281,-2.7299,-2.7333,-2.7243,-2.7282,-2.7396,-2.7344,-2.7457,-2.7468,-2.7503,-2.7516,-2.7521,-2.7534,-2.7555,-2.7556,-2.7712,-2.7713,0,0,-2.7275,-2.726,-2.7325,-2.734,-2.7321,-2.734,-2.7348,-2.7464,-2.7478,-2.7516,-2.7525,-2.7536,-2.7556,-2.7558,-2.7712,-2.7713,0,0,0,-2.7255,-2.7256,-2.7286,-2.7333,-2.7355,-2.7344,-2.7352,-2.7473,-2.7484,-2.7526,-2.7538,-2.7557,-2.7559,-2.7711,-2.7712,-2.7729,0,0,0,-2.7252,-2.7245,-2.7284,-2.7276,-2.7352,-2.7415,-2.7358,-2.7476,-2.7489,-2.7537,-2.7557,-2.756,-2.771,-2.7712,-2.7727,-2.7739,0,0,0,-2.7234,-2.7242,-2.7259,-2.7275,-2.7324,-2.7413,-2.7431,-2.7479,-2.7496,-2.7555,-2.7561,-2.771,-2.7711,-2.7725,-2.7736,-2.7776,0,0,0,-2.721,-2.7272,-2.7259,-2.7333,-2.7323,-2.7423,-2.7431,-2.7506,-2.7559,-2.7558,-2.7711,-2.7712,-2.7725,-2.7735,-2.7774,-2.7805,-2.7817,0,0,-2.728,-2.728,-2.7325,-2.7316,-2.7414,-2.7407,-2.7508,-2.757,-2.759,-2.7671,-2.7675,-2.7728,-2.7736,-2.7775,-2.7891,-2.7901,0,0,0,-2.7342,-2.7374,-2.7403,-2.7452,-2.7502,-2.7545,-2.7593,-2.7617,-2.7686,-2.7628,-2.7754,-2.7759,-2.7783,-2.7798,-2.7806,-2.7827,-2.7719,-2.7719,-2.7719,-2.7419,-2.744,-2.7516,-2.7552,-2.76,-2.765,-2.7691,-2.7731,-2.7739,-2.7769,-2.7792,-2.786,-2.7878,-2.7884,-2.7905,-2.7812,-2.7812,-2.7812,-2.7812,-2.7522,-2.757,-2.758,-2.7657,-2.768,-2.7745,-2.7797,-2.78,-2.7865,-2.7844,-2.7866,-2.7839,-2.7893,-2.7913,-2.7814,-2.7813,-2.7813,-2.7813,-2.7813,-2.7573,-2.76,-2.7628,-2.7702,-2.7757,-2.7793,-2.7854,-2.7873,-2.7892,-2.7914,-2.7941,-2.794,-2.7942,-2.7926,-2.7926,-2.7926,-2.7926,-2.7927,-2.7927,-2.7614,-2.7645,-2.7694,-2.7753,-2.7787,-2.7836,-2.7888,-2.7923,-2.7967,-2.7977,-2.7977,-2.7982,-2.7895,-2.7872,-2.793,-2.793,-2.7929,-2.7929,-2.7929,-2.7708,-2.769,-2.7766,-2.78,-2.7872,-2.7925,-2.795,-2.802,-2.8053,-2.8082,-2.8084,-2.8017,-2.8018,-2.8012,-2.7993,-2.8079,-2.8079,-2.8079,-2.8079,-2.775,-2.7753,-2.7835,-2.7889,-2.7946,-2.7976,-2.8062,-2.8104,-2.8145,-2.8167,-2.8158,-2.8135,-2.8128,-2.8133,-2.8124,-2.8107,-2.822,-2.822,-2.822,-2.7809,-2.7818,-2.7886,-2.7926,-2.7983,-2.8033,-2.8114,-2.8177,-2.822,-2.8227,-2.8184,-2.8178,-2.8141,-2.8128,-2.8131,-2.8117,-2.8085,0,0]},{"header":{"parameterUnit":"m.s-1","parameterCategory":1,"la1":30.2992,"la2":30.254,"lo1":-89.0895,"lo2":-89.0443,"dy":0.0025,"dx":0.0025,"nx":19,"ny":19,"refTime":"2026-04-28T09:00:00:Z","depth":0,"parameterNumber":3,"parameterNumberName":"V-component_of_WINDS"},"data":[0,0,0,3.7815,3.7817,3.7896,3.7897,3.7995,3.7996,0,0,0,0,0,0,0,0,0,0,0,3.7791,3.7792,3.7815,3.7817,3.7896,3.7897,3.7995,3.7996,0,0,0,0,0,0,0,0,0,0,0,3.7791,3.7791,3.7792,3.7817,3.7896,3.7897,3.7994,3.7935,0,0,0,0,0,0,0,0,0,0,3.7859,3.7836,3.7791,3.7792,3.7818,3.7896,3.7897,3.7932,3.7939,3.7958,0,3.7975,0,3.7987,3.8002,3.8002,0,0,0,3.7817,3.783,3.7853,3.7792,3.7819,3.7896,3.7861,3.7936,3.7943,3.7966,3.7977,3.7981,3.7989,3.8003,3.8003,3.8115,3.8116,0,0,3.7813,3.7804,3.7848,3.7857,3.7847,3.7858,3.7863,3.7941,3.7951,3.7977,3.7983,3.799,3.8003,3.8004,3.8115,3.8116,0,0,0,3.78,3.7801,3.7822,3.7853,3.7868,3.786,3.7866,3.7947,3.7955,3.7984,3.7992,3.8004,3.8005,3.8114,3.8115,3.8134,0,0,0,3.7797,3.7794,3.782,3.7815,3.7867,3.7909,3.7871,3.795,3.7959,3.7991,3.8004,3.8006,3.8114,3.8115,3.8132,3.8144,0,0,0,3.7786,3.7792,3.7804,3.7815,3.7849,3.7908,3.792,3.7952,3.7963,3.8002,3.8006,3.8113,3.8115,3.8131,3.8141,3.8171,0,0,0,3.7771,3.7818,3.7804,3.786,3.7848,3.792,3.792,3.7973,3.8008,3.8004,3.8114,3.8115,3.813,3.814,3.817,3.8195,3.8205,0,0,3.7825,3.7824,3.7858,3.7848,3.792,3.7908,3.7982,3.8022,3.8032,3.8087,3.809,3.8133,3.8141,3.8171,3.8265,3.8273,0,0,0,3.7872,3.7896,3.7917,3.7952,3.7985,3.8014,3.8044,3.8059,3.8106,3.8059,3.8152,3.8157,3.8175,3.8188,3.8195,3.8211,3.8121,3.812,3.812,3.7937,3.795,3.8006,3.8029,3.8063,3.8094,3.8122,3.8147,3.8148,3.817,3.8186,3.8242,3.8256,3.8262,3.8278,3.8201,3.8201,3.8201,3.8201,3.8018,3.8054,3.8058,3.8114,3.8127,3.8173,3.8205,3.8205,3.825,3.823,3.8247,3.8225,3.827,3.8285,3.8203,3.8203,3.8202,3.8202,3.8202,3.8062,3.8081,3.81,3.8153,3.8193,3.8213,3.8257,3.8267,3.8276,3.8292,3.8311,3.831,3.8311,3.8301,3.8301,3.8301,3.8301,3.8301,3.8301,3.8099,3.812,3.8157,3.8197,3.8222,3.8255,3.8288,3.8312,3.8341,3.8344,3.8344,3.8344,3.8272,3.8254,3.8304,3.8304,3.8303,3.8303,3.8303,3.8177,3.8162,3.8218,3.8243,3.8292,3.833,3.8343,3.8391,3.8412,3.8433,3.843,3.8376,3.8374,3.8369,3.8354,3.8427,3.8427,3.8427,3.8427,3.8214,3.8215,3.8276,3.8315,3.8354,3.8372,3.8435,3.8461,3.8485,3.8499,3.849,3.8471,3.8465,3.8467,3.846,3.8446,3.8541,3.8541,3.8541,3.8263,3.8268,3.832,3.8346,3.8385,3.8419,3.8478,3.8522,3.8546,3.8546,3.851,3.8505,3.8475,3.8464,3.8462,3.8451,3.8426,0,0]}]]